Regional Weather Roundup
Issued by NWS

Home | Current Version | Previous Version | Text Only | Print | Product List | Glossary On
Versions: 1 2 3 4 5 6 7 8 9 10 11 12 13 14 15 16 17 18 19 20 21 22 23 24 25 26 27 28 29 30 31 32 33 34 35 36 37 38 39 40 41 42 43 44 45 46 47 48 49 50
000
ASUS43 KMPX 260410
RWRMN
WEATHER ROUNDUP FOR MINNESOTA
NATIONAL WEATHER SERVICE TWIN CITIES/CHANHASSEN MN
1100 PM CDT SAT OCT 25 2014


NOTE: "FAIR" INDICATES FEW OR NO CLOUDS BELOW 12,000 FEET WITH NO
SIGNIFICANT WEATHER AND/OR OBSTRUCTIONS TO VISIBILITY. N/A MEANS
CURRENT SKY AND/OR WEATHER CONDITIONS ARE NOT AVAILABLE.

MNZ060>063-068>070-260500-
   Twin Cities Metro

CITY           SKY/WX    TMP DP  RH WIND       PRES   REMARKS
TWIN CITIES    CLEAR     47  28  47 W3        30.05S
ST PAUL        CLEAR     49  27  42 N3        30.05S
CRYSTAL        CLEAR     42  28  57 CALM      30.04S
BLAINE         CLEAR     45  28  53 W6        30.04S
LAKEVILLE      CLEAR     41  28  60 W3        30.05S
EDEN PRAIRIE   CLEAR     48  27  44 CALM      30.04F
SOUTH ST PAUL  CLEAR     46  28  48 CALM      30.04F
LAKE ELMO      FAIR      45  30  57 NW5       30.04S
$$
MNZ001>005-007-008-013>017-022>024-027-028-260500-
   Northwest Minnesota

CITY           SKY/WX    TMP DP  RH WIND       PRES   REMARKS
BEMIDJI        PTCLDY    37  24  60 CALM      30.00S
HALLOCK        MOCLDY    36  19  51 S3        29.97F
ROSEAU         PTCLDY    41  27  56 SW6       29.97S
WARROAD        CLEAR     39  27  60 W6        29.97S
THIEF RVR FALL PTCLDY    39  25  56 CALM      30.00S
CROOKSTON      CLEAR     39  25  56 CALM      30.01S
FOSSTON        CLEAR     32  21  64 CALM      30.01F
DETROIT LAKES  CLEAR     41  32  70 CALM      30.04S
MOORHEAD       CLEAR     39  25  56 SE3       30.03F
PARK RAPIDS    CLEAR     36  24  62 CALM      30.02S
MAHNOMEN       FAIR      35  25  67 S10       30.02S WCI  27
$$
MNZ006-009>011-018-025>026-260500-
   North Central Minnesota

CITY           SKY/WX    TMP DP  RH WIND       PRES   REMARKS
BAUDETTE       PTCLDY    39  25  57 CALM      29.96S
FLAG ISLAND    CLEAR     45  28  53 W9        29.94R
INTL FALLS     CLEAR     28  23  81 SW6       29.95S WCI  22
WASKISH        PTCLDY    45  37  76 CALM      29.98S
BIG FORK       CLEAR     37  25  60 CALM      29.98F
LONGVILLE      CLEAR     36  32  87 CALM      30.01S
GRAND RAPIDS   CLEAR     46  25  42 W8        29.99S
CRANE LAKE     CLEAR     43  27  52 CALM      29.97R
ORR            CLEAR     37  25  60 CALM      29.94S
COOK           CLEAR     37  25  60 CALM      29.97S
WALKER         FAIR      41  27  56 W3        30.00F
$$
MNZ012-019>021-037-260500-
   Northeast Minnesota

CITY           SKY/WX    TMP DP  RH WIND       PRES   REMARKS
DULUTH         CLEAR     40  26  57 W7        29.97S
ELY            CLEAR     43  27  52 W6        29.95R
HIBBING        CLEAR     32  25  75 CALM      29.97S
EVELETH        CLEAR     36  27  69 CALM      29.98S
DULUTH HARBOR  CLEAR     50  30  46 W10       29.99S
TWO HARBORS    CLEAR     46  16  29 W5        29.94S
SILVER BAY     CLEAR     46  27  46 W5        29.92S
GRAND MARAIS     N/A     49  29  46 VRB7      29.86R
G MARAIS ARPRT CLEAR     43  27  52 NW16G24   29.86S
$$
MNZ029>031-032-039>041-046>048-054>057-064-260500-
   West Central Minnesota

CITY           SKY/WX    TMP DP  RH WIND       PRES   REMARKS
FERGUS FALLS   CLEAR     41  27  56 CALM      30.05F
WHEATON        CLEAR     36  27  69 CALM      30.06F
MORRIS         CLEAR     37  27  65 CALM      30.04F
ALEXANDRIA     CLEAR     40  30  67 CALM      30.06S
ELBOW LAKE     FAIR      42  32  68 SE3       30.04F
WADENA         CLEAR     39  28  65 SW3       30.04S
GLENWOOD       CLEAR     45  27  49 W3        30.06S
APPLETON       CLEAR     39  34  81 CALM      30.05F
BENSON         CLEAR     37  30  75 CALM      30.06S
ORTONVILLE     CLEAR     43  30  61 CALM      30.04F
MADISON        CLEAR     43  30  61 SW3       30.05F
WILLMAR        FAIR      39  30  70 CALM      30.07F
$$
MNZ033>034-036-042>043-049>051-058-059-260500-
   Central Minnesota

CITY           SKY/WX    TMP DP  RH WIND       PRES   REMARKS
ST CLOUD       CLEAR     42  28  57 CALM      30.05S
SAUK CENTRE    FAIR      37  28  68 CALM      30.06S
PAYNESVILLE    CLEAR     31  27  84 CALM      30.06F
AITKIN         CLEAR     43  27  52 SW3       30.00S
PINE RIVER     CLEAR     34  28  80 CALM      30.06R
BRAINERD       CLEAR     37  27  67 SW5       30.04R
STAPLES        CLEAR     39  27  60 CALM      30.04S
LONG PRAIRIE   FAIR      36  28  75 CALM      30.05S
LITTLE FALLS   CLEAR     34  28  80 CALM      30.05S
LITCHFIELD     CLEAR     43  34  70 CALM      30.06F
BUFFALO        CLEAR     40  29  64 CALM      30.06S
MAPLE LAKE     CLEAR     37  32  81 W3        30.06S
$$
MNZ037-044-045-052-053-260500-
   East Central Minnesota

CITY           SKY/WX    TMP DP  RH WIND       PRES   REMARKS
PRINCETON      CLEAR     37  28  70 CALM      30.04F
MORA           CLEAR     36  28  75 CALM      30.05S
CAMBRIDGE      CLEAR     43  28  56 CALM      30.02S
RUSH CITY      CLEAR     42  29  62 W3        30.03F
MOOSE LAKE     CLEAR     37  27  65 SW3       30.00R
HINCKLEY       FAIR      37  30  75 CALM      30.03R
CLOQUET        CLEAR     41  25  52 W7        29.99R
MCGREGOR       CLEAR     45  27  49 SW3       30.02R
$$
MNZ071>073-080-081-089-090-097-098-260500-
   Southwest Minnesota

CITY           SKY/WX    TMP DP  RH WIND       PRES   REMARKS
MONTEVIDEO     CLEAR     45  30  57 CALM      30.07S
GRANITE FALLS  CLEAR     39  31  75 CALM      30.07F
CANBY          CLEAR     38  32  79 CALM      30.06F
MARSHALL       CLEAR     37  27  65 SW6       30.05F
REDWOOD FALLS  CLEAR     47  31  53 CALM      30.06S
OLIVIA         CLEAR     43  30  61 CALM      30.06S
PIPESTONE      CLEAR     46  30  53 SE6       30.05F
WINDOM         CLEAR     39  28  65 CALM      30.07F
WORTHINGTON    CLEAR     39  28  65 CALM      30.08F
JACKSON        PTCLDY    43  32  65 CALM      30.09R
TRACY          CLEAR     44  33  64 SW5       30.07S
SLAYTON        CLEAR     40  32  71 CALM      30.08S
$$
MNZ065>067-074>077-082>085-091>093-260500-
   South Central Minnesota

CITY           SKY/WX    TMP DP  RH WIND       PRES   REMARKS
MANKATO        CLEAR     46  25  42 N5        30.06S
NEW ULM        CLEAR     43  30  61 CALM      30.06S
ST JAMES       CLEAR     39  30  70 CALM      30.08S
FAIRMONT       CLEAR     45 -11   9 CALM      30.08R
GLENCOE        CLEAR     40  31  69 CALM      30.06R
FARIBAULT      CLEAR     37  28  70 CALM      30.06S
OWATONNA       CLEAR     36  30  80 CALM      30.07S
WASECA         CLEAR     41  27  56 N3        30.08S
ALBERT LEA     CLEAR     46  37  71 CALM      30.06S
$$
MNZ078>079-086>088-094>096-260500-
   Southeast Minnesota

CITY           SKY/WX    TMP DP  RH WIND       PRES   REMARKS
ROCHESTER      CLEAR     44  28  53 NW8       30.06S
RED WING       CLEAR     37  28  70 NW3       30.03F
STANTON        CLEAR     40  28  64 CALM      30.04S
DODGE CENTER   PTCLDY    46  28  49 NW7       30.06S
WINONA         CLEAR     48  32  53 NW3       30.04R
AUSTIN         CLEAR     46  30  53 CALM      30.06R
PRESTON        CLEAR     45  29  53 NW9       30.05S
$$
ABBREVIATIONS USED IN REMARKS
   TC - TEMPERATURES IN CELSIUS
  WCI - WIND CHILL INDEX
   HX - HEAT INDEX
  VSB - VISIBILITY
$$



USA.gov is the U.S. government's official web portal to all federal, state and local government web resources and services.